Volver al catálogo

FENGYUN 1C DEB

ActivoPO
NORAD 38499·DEBRIS·🇨🇳 China

Lanzado May 10, 1999 desde Taiyuan Satellite Launch Center

Loading…

Próximos Pases (próximas 24 horas)

TLE

ActualizadoSource: Space-Track

Época: Sep 14, 2026, 21:03 UTC

1 38499U 99025ESJ 26257.87776943  .00001065  00000-0  93454-3 0  9991
2 38499  98.4027 126.8157 0225596 116.1871 246.2670 13.76338478793577

Sigue FENGYUN 1C DEB en tiempo real con AllMySat

Download on the App Store